TimeAKST,TemperatureF,Dew PointF,Humidity,Sea Level PressureIn,VisibilityMPH,Wind Direction,Wind SpeedMPH,Gust SpeedMPH,PrecipitationIn,Events,Conditions,WindDirDegrees,DateUTC
12:56 AM,-15.9,-22.0,74,30.29,10.0,Calm,Calm,-,N/A,,Clear,0,2013-01-16 09:56:00
1:56 AM,-17.9,-24.0,74,30.31,10.0,Calm,Calm,-,N/A,,Clear,0,2013-01-16 10:56:00
2:56 AM,-18.9,-24.9,74,30.34,10.0,Calm,Calm,-,N/A,,Clear,0,2013-01-16 11:56:00
3:56 AM,-18.9,-24.9,74,30.36,10.0,Calm,Calm,-,N/A,,Clear,0,2013-01-16 12:56:00
4:56 AM,-22.0,-27.9,74,30.38,10.0,Calm,Calm,-,N/A,,Clear,0,2013-01-16 13:56:00
5:56 AM,-22.9,-28.8,74,30.39,10.0,Calm,Calm,-,N/A,,Clear,0,2013-01-16 14:56:00
6:56 AM,-22.9,-28.8,74,30.41,10.0,Calm,Calm,-,N/A,,Clear,0,2013-01-16 15:56:00
7:56 AM,-24.0,-29.9,74,30.43,10.0,Calm,Calm,-,N/A,,Clear,0,2013-01-16 16:56:00
8:56 AM,-24.0,-31.0,70,30.45,10.0,Calm,Calm,-,N/A,,Clear,0,2013-01-16 17:56:00
9:56 AM,-22.9,-29.9,70,30.47,10.0,Calm,Calm,-,N/A,,Clear,0,2013-01-16 18:56:00
10:43 AM,-22.0,-29.2,69,30.47,5.0,Calm,Calm,-,0.00,Snow,Light Snow,0,2013-01-16 19:43:00
10:56 AM,-20.9,-27.9,70,30.50,6.0,Calm,Calm,-,0.00,Snow,Light Snow,0,2013-01-16 19:56:00
11:06 AM,-20.2,-27.4,69,30.48,5.0,Calm,Calm,-,0.00,Snow,Light Snow,0,2013-01-16 20:06:00
11:56 AM,-22.0,-27.4,76,30.50,10.0,Calm,Calm,-,N/A,,Mostly Cloudy,0,2013-01-16 20:56:00
12:56 PM,-24.0,-31.0,70,30.54,10.0,Calm,Calm,-,N/A,,Clear,0,2013-01-16 21:56:00
1:56 PM,-26.0,-31.9,73,30.55,6.0,Calm,Calm,-,N/A,,Haze,0,2013-01-16 22:56:00
2:56 PM,-26.9,-33.9,69,30.57,9.0,Calm,Calm,-,N/A,,Clear,0,2013-01-16 23:56:00
3:56 PM,-27.9,-35.0,69,30.58,10.0,Calm,Calm,-,N/A,,Clear,0,2013-01-17 00:56:00
4:56 PM,-29.9,-9999,N/A,30.59,10.0,Calm,Calm,-,N/A,,Clear,0,2013-01-17 01:56:00
5:56 PM,-31.0,-9999,N/A,30.59,10.0,Calm,Calm,-,N/A,,Clear,0,2013-01-17 02:56:00
6:56 PM,-31.0,-9999,N/A,30.61,10.0,Calm,Calm,-,N/A,,Clear,0,2013-01-17 03:56:00
7:56 PM,-29.9,-9999,N/A,30.62,10.0,Calm,Calm,-,N/A,,Mostly Cloudy,0,2013-01-17 04:56:00
8:07 PM,-31.0,-9999,N/A,30.60,10.0,Calm,Calm,-,N/A,,Scattered Clouds,0,2013-01-17 05:07:00
8:56 PM,-31.0,-9999,N/A,30.62,10.0,Calm,Calm,-,N/A,,Partly Cloudy,0,2013-01-17 05:56:00
9:35 PM,-32.8,-9999,N/A,30.61,10.0,Calm,Calm,-,N/A,,Mostly Cloudy,0,2013-01-17 06:35:00
9:45 PM,-29.2,-9999,N/A,30.61,10.0,Calm,Calm,-,N/A,,Overcast,0,2013-01-17 06:45:00
9:56 PM,-29.9,-9999,N/A,30.63,9.0,Calm,Calm,-,N/A,,Overcast,0,2013-01-17 06:56:00
10:56 PM,-28.8,-35.9,69,30.63,10.0,Calm,Calm,-,N/A,,Overcast,0,2013-01-17 07:56:00
11:05 PM,-29.2,-36.4,68,30.61,6.0,Calm,Calm,-,N/A,,Haze,0,2013-01-17 08:05:00
11:56 PM,-26.9,-33.9,69,30.63,10.0,Calm,Calm,-,N/A,,Overcast,0,2013-01-17 08:56:00